Content
SEND FEEDBACK

Daily
Averages
Monthly
Summary
France

NOGENT-SUR-MARNE, FRANCE


Home > Europe > France
Elevation: 174 feet     Latitude: 48 48N     Longitude: 002 30E

WEATHER
 
SELECT A DAY
Number of Records: 320,186;   Date Range: 7/1/96 - 9/15/14
 
SHARE

PRINT THIS DATA

[ ← Previous Day ]
WEATHER ALMANAC - JANUARY 31, 2013
[ Next Day → ]
[ °C ]   °F
Weather ElementAverageHighLow
Temperature45.7 °F51.8 °F (2:00 pm)39.2 °F (3:00 am)
Dewpoint41.5 °F48.2 °F (3:30 pm)35.6 °F (3:00 am)
Humidity85.1 %100 % (5:30 am)64 % (7:00 pm)
Barometer30.15 in30.27 in (1:00 am)30.09 in (1:30 pm)
Wind Speed10.1 mph17.3 mph (11:30 am)
Wind Gust31.1 mph (11:30 am)
Weather ElementAverage
Visibility5.9 mi
Wind DirectionSW (221.3 °)

Weather ElementTotal
Precipitation---
Heating Degree Days19.5 (Base 65)
Averaged from 54 records on January 31, 2013
WEATHER CONDITIONS BREAKOUT
WIND DIRECTION BREAKOUT
WEATHER BY HOUR - JANUARY 31, 2013
[ °C ]   °F
Local TimeTemperatureDewpointHumidityBarometerVisibilityWind DirectionWind SpeedGust SpeedPrecipitationEventsConditions
12:30 AM44.6 °F37.4 °F76 %30.21 inSSW (210°)4.6 mphClear
1:00 AM43.0 °F37.0 °F72 %30.27 in19.0 miSouth (190°)4.6 mph
1:00 AM42.8 °F37.4 °F81 %30.24 inSouth (190°)4.6 mphClear
1:30 AM42.8 °F37.4 °F81 %30.24 inSSW (210°)4.6 mphClear
2:00 AM41.0 °F37.4 °F87 %30.24 inSouth (190°)4.6 mphClear
2:30 AM41.0 °F37.4 °F87 %30.24 inSSW (210°)8.1 mphClear
3:00 AM39.2 °F35.6 °F87 %30.24 inSSW (210°)6.9 mphClear
3:30 AM39.2 °F37.4 °F93 %30.24 inSSW (200°)8.1 mphClear
4:00 AM41.0 °F37.4 °F87 %30.21 inSSW (200°)8.1 mphClear
4:30 AM39.2 °F37.4 °F93 %30.21 inSouth (190°)5.8 mphClear
5:00 AM39.2 °F37.4 °F93 %30.21 inSSW (200°)8.1 mphClear
5:30 AM39.2 °F39.2 °F100 %30.21 inSouth (190°)6.9 mphClear
6:00 AM39.2 °F39.2 °F100 %30.18 in6.2 miSouth (190°)6.9 mphMostly Cloudy
6:30 AM41.0 °F39.2 °F93 %30.18 in6.2 miSouth (190°)10.4 mphMostly Cloudy
7:00 AM40.0 °F40.0 °F99 %30.19 in3.0 miSSW (200°)12.7 mphMist
7:00 AM41.0 °F39.2 °F93 %30.18 in1.9 miSSW (200°)12.7 mphMostly Cloudy
7:30 AM41.0 °F39.2 °F93 %30.18 in1.9 miSSW (200°)11.5 mphMostly Cloudy
8:00 AM41.0 °F41.0 °F100 %30.18 in1.9 miSSW (200°)9.2 mphMostly Cloudy
8:30 AM42.8 °F41.0 °F93 %30.18 in4.3 miSSW (200°)11.5 mphMostly Cloudy
8:34 AM42.8 °F41.0 °F93 %30.18 in4.3 miSSW (200°)10.4 mphMostly Cloudy
9:00 AM42.8 °F41.0 °F93 %30.18 in5.0 miSW (220°)12.7 mphMostly Cloudy
9:30 AM44.6 °F41.0 °F87 %30.18 in6.2 miSSW (210°)11.5 mphOvercast
10:00 AM44.6 °F41.0 °F87 %30.15 in6.2 miSSW (200°)13.8 mphOvercast
10:30 AM44.6 °F42.8 °F93 %30.15 in6.2 miSSW (210°)15.0 mphMostly Cloudy
11:00 AM46.4 °F42.8 °F87 %30.15 in6.2 miSW (220°)15.0 mphMostly Cloudy
11:30 AM46.4 °F42.8 °F87 %30.15 in6.2 miSW (230°)17.3 mph31.1 mphMostly Cloudy
12:00 PM48.2 °F42.8 °F82 %30.15 in6.2 miSW (220°)15.0 mph29.9 mphMostly Cloudy
12:47 PM50.0 °F44.6 °F82 %30.12 in6.2 miSW (230°)16.1 mphMostly Cloudy
1:00 PM50.0 °F44.0 °F73 %30.14 in9.0 miSW (230°)16.1 mphOvercast
1:00 PM50.0 °F44.6 °F82 %30.12 in6.2 miSW (230°)16.1 mphMostly Cloudy
1:30 PM50.0 °F44.6 °F82 %30.09 in6.2 miWSW (240°)16.1 mphMostly Cloudy
2:00 PM51.8 °F44.6 °F76 %30.09 in6.2 miWSW (240°)15.0 mphMostly Cloudy
2:30 PM50.0 °F46.4 °F87 %30.09 in5.6 miWSW (250°)13.8 mphLight Drizzle
2:39 PM50.0 °F46.4 °F87 %30.09 in2.5 miWSW (250°)13.8 mphLight Drizzle
2:47 PM50.0 °F46.4 °F87 %30.09 in2.5 miWest (260°)11.5 mphLight Drizzle
3:00 PM50.0 °F46.4 °F87 %30.09 in2.2 miWSW (250°)10.4 mphLight Drizzle
3:30 PM50.0 °F48.2 °F94 %30.09 in4.3 miWest (270°)11.5 mphLight Drizzle
4:00 PM50.0 °F48.2 °F94 %30.09 inWest (260°)10.4 mphClear
4:30 PM50.0 °F46.4 °F87 %30.09 inWest (270°)12.7 mphClear
5:00 PM50.0 °F44.6 °F82 %30.09 inWSW (240°)10.4 mphClear
5:30 PM50.0 °F42.8 °F76 %30.09 inWSW (250°)9.2 mphClear
6:00 PM50.0 °F41.0 °F71 %30.09 inWSW (250°)9.2 mphClear
6:30 PM48.2 °F41.0 °F76 %30.09 inWest (260°)11.5 mphClear
7:00 PM49.0 °F40.0 °F64 %30.13 in16.0 miWSW (250°)9.2 mphPartly Cloudy
7:00 PM48.2 °F41.0 °F76 %30.12 in6.2 miWSW (250°)9.2 mphMostly Cloudy
7:30 PM48.2 °F41.0 °F76 %30.12 in6.2 miSW (230°)8.1 mphMostly Cloudy
8:00 PM48.2 °F41.0 °F76 %30.12 in6.2 miSW (230°)8.1 mphMostly Cloudy
8:30 PM48.2 °F41.0 °F76 %30.12 in6.2 miWSW (240°)6.9 mphMostly Cloudy
9:00 PM48.2 °F41.0 °F76 %30.12 inSW (230°)6.9 mphClear
9:30 PM48.2 °F41.0 °F76 %30.12 in6.2 miSW (220°)6.9 mphMostly Cloudy
10:00 PM48.2 °F42.8 °F82 %30.12 in6.2 miSSW (210°)6.9 mphMostly Cloudy
10:30 PM48.2 °F42.8 °F82 %30.12 in6.2 miSW (220°)6.9 mphMostly Cloudy
11:00 PM48.2 °F44.6 °F87 %30.09 in6.2 miSSW (200°)5.8 mphMostly Cloudy
11:30 PM48.2 °F44.6 °F87 %30.09 in6.2 miSSW (210°)5.8 mphMostly Cloudy
Hourly data recorded from LFPO, located miles away from Nogent-sur-Marne, France







STORIES FROM OUR PARTNERS